| time (UTC) | temp F | wind direction | speed MPH | gust MPH | rain 1hr in | rain 24hr in | rain mn in | humidity % | barometer mb |
| 20260901075050 | 63 | 277 | 1.0 | 3.0 | 0.00 | 0.00 | 0.00 | 55 | 1012.0 |
| 20260901074550 | 63 | 275 | 1.0 | 2.0 | 0.00 | 0.00 | 0.00 | 55 | 1012.0 |
| 20260901074050 | 63 | 274 | 0.0 | 1.0 | 0.00 | 0.00 | 0.00 | 55 | 1012.0 |
| 20260901073549 | 63 | 274 | 0.0 | 1.0 | 0.00 | 0.00 | 0.00 | 54 | 1012.0 |
| 20260901073050 | 63 | 274 | 0.0 | 2.0 | 0.00 | 0.00 | 0.00 | 53 | 1011.9 |
| 20260901072549 | 63 | 274 | 0.0 | 2.0 | 0.00 | 0.00 | 0.00 | 53 | 1011.9 |
| 20260901072047 | 63 | 274 | 0.0 | 2.0 | 0.00 | 0.00 | 0.00 | 52 | 1011.8 |
| 20260901071545 | 64 | 274 | 0.0 | 2.0 | 0.00 | 0.00 | 0.00 | 52 | 1011.9 |
| 20260901071045 | 64 | 273 | 0.0 | 2.0 | 0.00 | 0.00 | 0.00 | 51 | 1011.8 |
| 20260901070545 | 64 | 273 | 0.0 | 0.0 | 0.00 | 0.00 | 0.00 | 51 | 1011.8 |
| 20260901070046 | 64 | 272 | 0.0 | 0.0 | 0.00 | 0.00 | 0.00 | 50 | 1011.7 |
| 20260901065544 | 64 | 272 | 0.0 | 0.0 | 0.00 | 0.00 | 0.00 | 50 | 1011.7 |
| 20260901065043 | 64 | 272 | 0.0 | 0.0 | 0.00 | 0.00 | 0.00 | 50 | 1011.7 |
| 20260901064543 | 64 | 272 | 0.0 | 0.0 | 0.00 | 0.00 | 0.00 | 50 | 1011.8 |
| 20260901064045 | 64 | 272 | 0.0 | 0.0 | 0.00 | 0.00 | 0.00 | 50 | 1011.7 |
| 20260901063543 | 64 | 272 | 0.0 | 0.0 | 0.00 | 0.00 | 0.00 | 50 | 1011.7 |
| 20260901063056 | 64 | 273 | 0.0 | 2.0 | 0.00 | 0.00 | 0.00 | 50 | 1011.6 |
| 20260901062543 | 64 | 273 | 0.0 | 2.0 | 0.00 | 0.00 | 0.00 | 50 | 1011.6 |
| 20260901062044 | 64 | 273 | 0.0 | 2.0 | 0.00 | 0.00 | 0.00 | 51 | 1011.6 |
| 20260901061552 | 64 | 272 | 0.0 | 1.0 | 0.00 | 0.00 | 0.00 | 51 | 1011.6 |
| 20260901061042 | 64 | 272 | 0.0 | 0.0 | 0.00 | 0.00 | 0.00 | 51 | 1011.6 |
| 20260901060543 | 64 | 272 | 0.0 | 2.0 | 0.00 | 0.00 | 0.00 | 51 | 1011.6 |
| 20260901060042 | 64 | 272 | 0.0 | 2.0 | 0.00 | 0.00 | 0.00 | 50 | 1011.6 |
| 20260901055541 | 64 | 272 | 0.0 | 0.0 | 0.00 | 0.00 | 0.00 | 50 | 1011.6 |
| 20260901055041 | 64 | 272 | 0.0 | 0.0 | 0.00 | 0.00 | 0.00 | 50 | 1011.6 |
| 20260901054541 | 64 | 272 | 0.0 | 0.0 | 0.00 | 0.00 | 0.00 | 50 | 1011.7 |
| 20260901054041 | 64 | 272 | 0.0 | 1.0 | 0.00 | 0.00 | 0.00 | 50 | 1011.7 |
| 20260901053543 | 64 | 272 | 0.0 | 1.0 | 0.00 | 0.00 | 0.00 | 50 | 1011.7 |
| 20260901053047 | 64 | 271 | 0.0 | 1.0 | 0.00 | 0.00 | 0.00 | 50 | 1011.8 |
| 20260901052540 | 64 | 271 | 0.0 | 2.0 | 0.00 | 0.00 | 0.00 | 50 | 1011.7 |
| 20260901052042 | 64 | 271 | 0.0 | 2.0 | 0.00 | 0.00 | 0.00 | 50 | 1011.7 |
| 20260901051542 | 65 | 271 | 0.0 | 2.0 | 0.00 | 0.00 | 0.00 | 49 | 1011.8 |
| 20260901051040 | 65 | 271 | 0.0 | 1.0 | 0.00 | 0.00 | 0.00 | 48 | 1011.7 |
| 20260901050540 | 65 | 271 | 0.0 | 2.0 | 0.00 | 0.00 | 0.00 | 48 | 1011.6 |
| 20260901050040 | 65 | 271 | 0.0 | 2.0 | 0.00 | 0.00 | 0.00 | 47 | 1011.5 |
| 20260901045539 | 65 | 271 | 0.0 | 2.0 | 0.00 | 0.00 | 0.00 | 46 | 1011.5 |
| 20260901045040 | 65 | 271 | 0.0 | 2.0 | 0.00 | 0.00 | 0.00 | 46 | 1011.5 |
| 20260901044539 | 65 | 272 | 0.0 | 1.0 | 0.00 | 0.00 | 0.00 | 46 | 1011.5 |
| 20260901044040 | 65 | 272 | 0.0 | 1.0 | 0.00 | 0.00 | 0.00 | 46 | 1011.4 |
| 20260901043539 | 66 | 272 | 0.0 | 1.0 | 0.00 | 0.00 | 0.00 | 46 | 1011.4 |
| 20260901043040 | 66 | 272 | 0.0 | 1.0 | 0.00 | 0.00 | 0.00 | 47 | 1011.4 |
| 20260901042538 | 66 | 272 | 0.0 | 1.0 | 0.00 | 0.00 | 0.00 | 47 | 1011.4 |
| 20260901042039 | 66 | 272 | 0.0 | 2.0 | 0.00 | 0.00 | 0.00 | 47 | 1011.4 |
| 20260901041538 | 66 | 272 | 0.0 | 3.0 | 0.00 | 0.00 | 0.00 | 46 | 1011.4 |
| 20260901041038 | 66 | 272 | 0.0 | 3.0 | 0.00 | 0.00 | 0.00 | 45 | 1011.5 |
| 20260901040538 | 66 | 272 | 1.0 | 4.0 | 0.00 | 0.00 | 0.00 | 45 | 1011.4 |
| 20260901040039 | 67 | 274 | 1.0 | 4.0 | 0.00 | 0.00 | 0.00 | 44 | 1011.3 |
| 20260901035538 | 67 | 274 | 2.0 | 6.0 | 0.00 | 0.00 | 0.00 | 44 | 1011.2 |
| 20260901035037 | 67 | 273 | 3.0 | 6.0 | 0.00 | 0.00 | 0.00 | 43 | 1011.2 |
| 20260901034538 | 67 | 271 | 1.0 | 4.0 | 0.00 | 0.00 | 0.00 | 43 | 1011.1 |
| 20260901034039 | 67 | 271 | 2.0 | 3.0 | 0.00 | 0.00 | 0.00 | 42 | 1011.0 |
| 20260901033537 | 68 | 248 | 1.0 | 3.0 | 0.00 | 0.00 | 0.00 | 41 | 1011.0 |
| 20260901033037 | 68 | 246 | 1.0 | 4.0 | 0.00 | 0.00 | 0.00 | 41 | 1011.1 |
| 20260901032537 | 68 | 227 | 1.0 | 4.0 | 0.00 | 0.00 | 0.00 | 41 | 1011.1 |
| 20260901032037 | 69 | 248 | 0.0 | 3.0 | 0.00 | 0.00 | 0.00 | 40 | 1011.1 |
| 20260901031536 | 69 | 255 | 1.0 | 3.0 | 0.00 | 0.00 | 0.00 | 40 | 1011.1 |
| 20260901031036 | 69 | 227 | 1.0 | 3.0 | 0.00 | 0.00 | 0.00 | 40 | 1010.9 |
| 20260901030540 | 69 | 261 | 1.0 | 3.0 | 0.00 | 0.00 | 0.00 | 39 | 1010.8 |
| 20260901030036 | 70 | 262 | 1.0 | 3.0 | 0.00 | 0.00 | 0.00 | 39 | 1010.7 |
| 20260901025536 | 70 | 260 | 2.0 | 4.0 | 0.00 | 0.00 | 0.00 | 39 | 1010.7 |
| 20260901025036 | 70 | 261 | 1.0 | 4.0 | 0.00 | 0.00 | 0.00 | 39 | 1010.6 |
| 20260901024535 | 71 | 261 | 2.0 | 4.0 | 0.00 | 0.00 | 0.00 | 38 | 1010.6 |
| 20260901024036 | 71 | 263 | 2.0 | 4.0 | 0.00 | 0.00 | 0.00 | 38 | 1010.5 |
| 20260901023535 | 72 | 238 | 1.0 | 3.0 | 0.00 | 0.00 | 0.00 | 37 | 1010.5 |
| 20260901023040 | 72 | 236 | 1.0 | 3.0 | 0.00 | 0.00 | 0.00 | 37 | 1010.5 |
| 20260901022536 | 72 | 242 | 1.0 | 3.0 | 0.00 | 0.00 | 0.00 | 36 | 1010.4 |
| 20260901022038 | 73 | 263 | 1.0 | 4.0 | 0.00 | 0.00 | 0.00 | 36 | 1010.5 |
| 20260901021541 | 73 | 278 | 2.0 | 6.0 | 0.00 | 0.00 | 0.00 | 35 | 1010.4 |
| 20260901021037 | 74 | 263 | 2.0 | 7.0 | 0.00 | 0.00 | 0.00 | 35 | 1010.4 |
| 20260901020535 | 74 | 281 | 3.0 | 7.0 | 0.00 | 0.00 | 0.00 | 34 | 1010.4 |
| 20260901020043 | 75 | 284 | 2.0 | 10.0 | 0.00 | 0.00 | 0.00 | 34 | 1010.5 |
| 20260901015533 | 75 | 283 | 4.0 | 10.0 | 0.00 | 0.00 | 0.00 | 34 | 1010.5 |
| 20260901015033 | 75 | 249 | 2.0 | 7.0 | 0.00 | 0.00 | 0.00 | 34 | 1010.5 |
| 20260901014533 | 75 | 265 | 2.0 | 9.0 | 0.00 | 0.00 | 0.00 | 34 | 1010.6 |
| 20260901014034 | 76 | 281 | 3.0 | 10.0 | 0.00 | 0.00 | 0.00 | 33 | 1010.6 |
| 20260901013536 | 76 | 275 | 5.0 | 12.0 | 0.00 | 0.00 | 0.00 | 33 | 1010.6 |
| 20260901013033 | 76 | 283 | 4.0 | 12.0 | 0.00 | 0.00 | 0.00 | 33 | 1010.6 |
| 20260901012532 | 77 | 273 | 3.0 | 9.0 | 0.00 | 0.00 | 0.00 | 32 | 1010.6 |
| 20260901012032 | 77 | 269 | 5.0 | 9.0 | 0.00 | 0.00 | 0.00 | 32 | 1010.6 |
| 20260901011532 | 77 | 271 | 1.0 | 10.0 | 0.00 | 0.00 | 0.00 | 32 | 1010.6 |
| 20260901011033 | 78 | 244 | 4.0 | 8.0 | 0.00 | 0.00 | 0.00 | 32 | 1010.5 |
| 20260901010533 | 78 | 280 | 3.0 | 8.0 | 0.00 | 0.00 | 0.00 | 31 | 1010.6 |
| 20260901010031 | 79 | 277 | 2.0 | 6.0 | 0.00 | 0.00 | 0.00 | 30 | 1010.6 |
| 20260901005533 | 79 | 262 | 2.0 | 8.0 | 0.00 | 0.00 | 0.00 | 30 | 1010.6 |
| 20260901005032 | 79 | 281 | 3.0 | 10.0 | 0.00 | 0.00 | 0.00 | 30 | 1010.5 |
| 20260901004529 | 79 | 277 | 4.0 | 10.0 | 0.00 | 0.00 | 0.00 | 29 | 1010.6 |
| 20260901004028 | 79 | 277 | 4.0 | 10.0 | 0.00 | 0.00 | 0.00 | 29 | 1010.5 |
| 20260901003529 | 80 | 229 | 2.0 | 8.0 | 0.00 | 0.00 | 0.00 | 28 | 1010.6 |
| 20260901003027 | 80 | 270 | 3.0 | 8.0 | 0.00 | 0.00 | 0.00 | 28 | 1010.6 |
| 20260901002527 | 80 | 267 | 1.0 | 6.0 | 0.00 | 0.00 | 0.00 | 28 | 1010.6 |
| 20260901002029 | 80 | 240 | 3.0 | 7.0 | 0.00 | 0.00 | 0.00 | 28 | 1010.6 |
| 20260901001526 | 80 | 265 | 4.0 | 13.0 | 0.00 | 0.00 | 0.00 | 28 | 1010.5 |
| 20260901001026 | 81 | 274 | 5.0 | 13.0 | 0.00 | 0.00 | 0.00 | 27 | 1010.6 |
| 20260901000526 | 81 | 259 | 2.0 | 8.0 | 0.00 | 0.00 | 0.00 | 27 | 1010.8 |
| 20260901000026 | 81 | 285 | 2.0 | 9.0 | 0.00 | 0.00 | 0.00 | 27 | 1010.7 |
| 20260831235526 | 81 | 270 | 4.0 | 9.0 | 0.00 | 0.00 | 0.00 | 27 | 1010.9 |
| 20260831235026 | 81 | 277 | 4.0 | 9.0 | 0.00 | 0.00 | 0.00 | 28 | 1010.7 |
| 20260831234526 | 80 | 244 | 1.0 | 7.0 | 0.00 | 0.00 | 0.00 | 28 | 1010.8 |
| 20260831234025 | 80 | 242 | 1.0 | 12.0 | 0.00 | 0.00 | 0.00 | 29 | 1010.8 |
| 20260831233527 | 79 | 172 | 5.0 | 14.0 | 0.00 | 0.00 | 0.00 | 29 | 1010.9 |
| 20260831233025 | 81 | 204 | 8.0 | 14.0 | 0.00 | 0.00 | 0.00 | 28 | 1010.8 |
| 20260831232524 | 83 | 188 | 4.0 | 14.0 | 0.00 | 0.00 | 0.00 | 27 | 1010.8 |
| 20260831232024 | 83 | 212 | 1.0 | 9.0 | 0.00 | 0.00 | 0.00 | 27 | 1010.9 |
| 20260831231524 | 83 | 284 | 4.0 | 9.0 | 0.00 | 0.00 | 0.00 | 27 | 1010.9 |
| 20260831231023 | 82 | 195 | 4.0 | 9.0 | 0.00 | 0.00 | 0.00 | 28 | 1010.9 |
| 20260831230524 | 82 | 259 | 3.0 | 10.0 | 0.00 | 0.00 | 0.00 | 28 | 1010.9 |
| 20260831230033 | 83 | 232 | 5.0 | 12.0 | 0.00 | 0.00 | 0.00 | 27 | 1010.9 |
| 20260831225523 | 84 | 212 | 3.0 | 12.0 | 0.00 | 0.00 | 0.00 | 27 | 1010.9 |
| 20260831225022 | 84 | 255 | 2.0 | 6.0 | 0.00 | 0.00 | 0.00 | 27 | 1010.9 |
| 20260831224522 | 83 | 296 | 1.0 | 10.0 | 0.00 | 0.00 | 0.00 | 28 | 1011.1 |
| 20260831224022 | 82 | 265 | 3.0 | 10.0 | 0.00 | 0.00 | 0.00 | 28 | 1011.2 |
| 20260831223522 | 82 | 196 | 4.0 | 10.0 | 0.00 | 0.00 | 0.00 | 29 | 1011.2 |
| 20260831223022 | 82 | 215 | 3.0 | 9.0 | 0.00 | 0.00 | 0.00 | 28 | 1011.2 |
| 20260831222525 | 82 | 250 | 4.0 | 12.0 | 0.00 | 0.00 | 0.00 | 28 | 1011.2 |
| 20260831222021 | 82 | 269 | 5.0 | 12.0 | 0.00 | 0.00 | 0.00 | 28 | 1011.2 |
| 20260831221522 | 83 | 184 | 6.0 | 11.0 | 0.00 | 0.00 | 0.00 | 27 | 1011.3 |
| 20260831221022 | 83 | 215 | 3.0 | 11.0 | 0.00 | 0.00 | 0.00 | 28 | 1011.4 |
| 20260831220522 | 84 | 187 | 3.0 | 11.0 | 0.00 | 0.00 | 0.00 | 28 | 1011.3 |
| 20260831220022 | 83 | 203 | 6.0 | 12.0 | 0.00 | 0.00 | 0.00 | 28 | 1011.3 |
| 20260831215522 | 83 | 208 | 5.0 | 11.0 | 0.00 | 0.00 | 0.00 | 29 | 1011.2 |
| 20260831215021 | 83 | 209 | 5.0 | 11.0 | 0.00 | 0.00 | 0.00 | 29 | 1011.1 |
| 20260831214521 | 83 | 232 | 4.0 | 11.0 | 0.00 | 0.00 | 0.00 | 29 | 1011.2 |
| 20260831214020 | 83 | 181 | 4.0 | 16.0 | 0.00 | 0.00 | 0.00 | 29 | 1011.2 |
| 20260831213524 | 83 | 218 | 5.0 | 16.0 | 0.00 | 0.00 | 0.00 | 30 | 1011.2 |
| 20260831213021 | 84 | 229 | 3.0 | 10.0 | 0.00 | 0.00 | 0.00 | 30 | 1011.3 |
| 20260831212521 | 83 | 211 | 5.0 | 11.0 | 0.00 | 0.00 | 0.00 | 30 | 1011.4 |
| 20260831212019 | 83 | 248 | 4.0 | 11.0 | 0.00 | 0.00 | 0.00 | 30 | 1011.5 |
| 20260831211519 | 83 | 228 | 6.0 | 14.0 | 0.00 | 0.00 | 0.00 | 30 | 1011.5 |
| 20260831211018 | 84 | 268 | 8.0 | 16.0 | 0.00 | 0.00 | 0.00 | 31 | 1011.4 |
| 20260831210517 | 84 | 232 | 6.0 | 16.0 | 0.00 | 0.00 | 0.00 | 31 | 1011.4 |
| 20260831210018 | 85 | 289 | 4.0 | 10.0 | 0.00 | 0.00 | 0.00 | 30 | 1011.4 |
| 20260831205517 | 85 | 198 | 4.0 | 13.0 | 0.00 | 0.00 | 0.00 | 30 | 1011.3 |
| 20260831205016 | 84 | 246 | 2.0 | 13.0 | 0.00 | 0.00 | 0.00 | 31 | 1011.4 |
| 20260831204523 | 83 | 292 | 5.0 | 11.0 | 0.00 | 0.00 | 0.00 | 30 | 1011.3 |
| 20260831204016 | 84 | 236 | 5.0 | 12.0 | 0.00 | 0.00 | 0.00 | 29 | 1011.4 |
| 20260831203517 | 83 | 216 | 5.0 | 12.0 | 0.00 | 0.00 | 0.00 | 30 | 1011.5 |
| 20260831203016 | 84 | 201 | 5.0 | 13.0 | 0.00 | 0.00 | 0.00 | 30 | 1011.4 |
| 20260831202518 | 84 | 277 | 5.0 | 12.0 | 0.00 | 0.00 | 0.00 | 29 | 1011.6 |
| 20260831202015 | 84 | 256 | 5.0 | 12.0 | 0.00 | 0.00 | 0.00 | 31 | 1011.6 |
| 20260831201516 | 84 | 225 | 4.0 | 13.0 | 0.00 | 0.00 | 0.00 | 30 | 1011.5 |
| 20260831201015 | 84 | 273 | 5.0 | 13.0 | 0.00 | 0.00 | 0.00 | 29 | 1011.5 |
| 20260831200513 | 84 | 215 | 5.0 | 10.0 | 0.00 | 0.00 | 0.00 | 28 | 1011.5 |
| 20260831200024 | 84 | 260 | 3.0 | 10.0 | 0.00 | 0.00 | 0.00 | 29 | 1011.6 |
| 20260831195512 | 84 | 234 | 5.0 | 16.0 | 0.00 | 0.00 | 0.00 | 31 | 1011.5 |
| 20260831195012 | 83 | 221 | 6.0 | 16.0 | 0.00 | 0.00 | 0.00 | 28 | 1011.7 |
| 20260831194510 | 84 | 223 | 6.0 | 15.0 | 0.00 | 0.00 | 0.00 | 28 | 1011.7 |
| 20260831194011 | 84 | 186 | 7.0 | 12.0 | 0.00 | 0.00 | 0.00 | 28 | 1011.7 |
| 20260831193513 | 84 | 213 | 4.0 | 10.0 | 0.00 | 0.00 | 0.00 | 27 | 1011.6 |
| 20260831193009 | 84 | 238 | 4.0 | 12.0 | 0.00 | 0.00 | 0.00 | 27 | 1011.6 |
| 20260831192508 | 84 | 253 | 6.0 | 12.0 | 0.00 | 0.00 | 0.00 | 28 | 1011.6 |
| 20260831192009 | 84 | 261 | 5.0 | 12.0 | 0.00 | 0.00 | 0.00 | 28 | 1011.7 |
| 20260831191508 | 83 | 227 | 6.0 | 12.0 | 0.00 | 0.00 | 0.00 | 28 | 1011.7 |
| 20260831191008 | 84 | 205 | 3.0 | 10.0 | 0.00 | 0.00 | 0.00 | 28 | 1011.8 |
| 20260831190507 | 84 | 180 | 3.0 | 10.0 | 0.00 | 0.00 | 0.00 | 28 | 1011.8 |
| 20260831190005 | 84 | 225 | 0.0 | 9.0 | 0.00 | 0.00 | 0.00 | 28 | 1011.8 |
| 20260831185504 | 84 | 285 | 3.0 | 10.0 | 0.00 | 0.00 | 0.00 | 28 | 1011.9 |
| 20260831185003 | 84 | 277 | 4.0 | 10.0 | 0.00 | 0.00 | 0.00 | 30 | 1011.9 |
| 20260831184502 | 84 | 312 | 2.0 | 11.0 | 0.00 | 0.00 | 0.00 | 31 | 1011.9 |
| 20260831184001 | 85 | 275 | 3.0 | 11.0 | 0.00 | 0.00 | 0.00 | 29 | 1011.9 |
| 20260831183600 | 85 | 262 | 3.0 | 10.0 | 0.00 | 0.00 | 0.00 | 30 | 1011.9 |
| 20260831183107 | 84 | 294 | 1.0 | 8.0 | 0.00 | 0.00 | 0.00 | 31 | 1011.9 |
| 20260831182559 | 85 | 287 | 3.0 | 7.0 | 0.00 | 0.00 | 0.00 | 30 | 1011.9 |
| 20260831182058 | 85 | 293 | 1.0 | 9.0 | 0.00 | 0.00 | 0.00 | 29 | 1011.9 |
| 20260831181602 | 85 | 325 | 2.0 | 9.0 | 0.00 | 0.00 | 0.00 | 30 | 1011.9 |
| 20260831181055 | 84 | 305 | 2.0 | 8.0 | 0.00 | 0.00 | 0.00 | 31 | 1011.9 |
| 20260831180553 | 83 | 327 | 2.0 | 8.0 | 0.00 | 0.00 | 0.00 | 32 | 1011.8 |
| 20260831180052 | 83 | 290 | 4.0 | 8.0 | 0.00 | 0.00 | 0.00 | 31 | 1011.9 |
| 20260831175552 | 83 | 300 | 3.0 | 7.0 | 0.00 | 0.00 | 0.00 | 31 | 1011.9 |
| 20260831175051 | 83 | 304 | 2.0 | 7.0 | 0.00 | 0.00 | 0.00 | 31 | 1011.9 |
| 20260831174549 | 83 | 276 | 1.0 | 8.0 | 0.00 | 0.00 | 0.00 | 31 | 1011.8 |
| 20260831174049 | 83 | 262 | 4.0 | 8.0 | 0.00 | 0.00 | 0.00 | 32 | 1011.8 |
| 20260831173546 | 82 | 283 | 0.0 | 3.0 | 0.00 | 0.00 | 0.00 | 32 | 1011.8 |
| 20260831173046 | 81 | 34 | 1.0 | 5.0 | 0.00 | 0.00 | 0.00 | 32 | 1011.7 |
| 20260831172544 | 81 | 198 | 2.0 | 5.0 | 0.00 | 0.00 | 0.00 | 32 | 1011.9 |
| 20260831172043 | 81 | 182 | 1.0 | 5.0 | 0.00 | 0.00 | 0.00 | 32 | 1011.8 |
| 20260831171542 | 81 | 207 | 1.0 | 7.0 | 0.00 | 0.00 | 0.00 | 32 | 1011.7 |
| 20260831171040 | 81 | 115 | 2.0 | 7.0 | 0.00 | 0.00 | 0.00 | 32 | 1011.7 |
| 20260831170540 | 81 | 136 | 1.0 | 6.0 | 0.00 | 0.00 | 0.00 | 33 | 1011.6 |
| 20260831170038 | 80 | 70 | 1.0 | 5.0 | 0.00 | 0.00 | 0.00 | 34 | 1011.6 |
| 20260831165536 | 80 | 59 | 0.0 | 5.0 | 0.00 | 0.00 | 0.00 | 34 | 1011.5 |
| 20260831165034 | 79 | 55 | 2.0 | 9.0 | 0.00 | 0.00 | 0.00 | 34 | 1011.5 |
| 20260831164539 | 79 | 71 | 4.0 | 9.0 | 0.00 | 0.00 | 0.00 | 34 | 1011.4 |
| 20260831164035 | 79 | 87 | 2.0 | 7.0 | 0.00 | 0.00 | 0.00 | 34 | 1011.4 |
| 20260831163531 | 79 | 34 | 1.0 | 6.0 | 0.00 | 0.00 | 0.00 | 35 | 1011.4 |
| 20260831163036 | 78 | 22 | 2.0 | 10.0 | 0.00 | 0.00 | 0.00 | 35 | 1011.3 |
| 20260831162533 | 77 | 12 | 2.0 | 10.0 | 0.00 | 0.00 | 0.00 | 36 | 1011.3 |
| 20260831162028 | 77 | 99 | 3.0 | 7.0 | 0.00 | 0.00 | 0.00 | 36 | 1011.3 |
| 20260831161525 | 76 | 80 | 1.0 | 9.0 | 0.00 | 0.00 | 0.00 | 36 | 1011.3 |
| 20260831161030 | 76 | 103 | 4.0 | 9.0 | 0.00 | 0.00 | 0.00 | 37 | 1011.4 |
| 20260831160522 | 76 | 61 | 3.0 | 9.0 | 0.00 | 0.00 | 0.00 | 38 | 1011.4 |
| 20260831160022 | 75 | 86 | 2.0 | 7.0 | 0.00 | 0.00 | 0.00 | 38 | 1011.5 |
| 20260831155522 | 75 | 69 | 2.0 | 5.0 | 0.00 | 0.00 | 0.00 | 39 | 1011.4 |
| 20260831155019 | 74 | 74 | 1.0 | 4.0 | 0.00 | 0.00 | 0.00 | 39 | 1011.5 |
| 20260831154517 | 74 | 66 | 0.0 | 4.0 | 0.00 | 0.00 | 0.00 | 40 | 1011.5 |
| 20260831154015 | 73 | 63 | 0.0 | 4.0 | 0.00 | 0.00 | 0.00 | 41 | 1011.5 |
| 20260831153518 | 73 | 96 | 1.0 | 4.0 | 0.00 | 0.00 | 0.00 | 40 | 1011.4 |
| 20260831153019 | 72 | 94 | 1.0 | 3.0 | 0.00 | 0.00 | 0.00 | 41 | 1011.5 |
| 20260831152614 | 72 | 85 | 1.0 | 3.0 | 0.00 | 0.00 | 0.00 | 42 | 1011.4 |
| 20260831152011 | 71 | 75 | 0.0 | 5.0 | 0.00 | 0.00 | 0.00 | 42 | 1011.4 |
| 20260831151510 | 70 | 74 | 3.0 | 6.0 | 0.00 | 0.00 | 0.00 | 44 | 1011.4 |
| 20260831151007 | 70 | 89 | 1.0 | 4.0 | 0.00 | 0.00 | 0.00 | 44 | 1011.3 |
| 20260831150507 | 69 | 89 | 1.0 | 5.0 | 0.00 | 0.00 | 0.00 | 45 | 1011.3 |
| 20260831150005 | 69 | 96 | 3.0 | 8.0 | 0.00 | 0.00 | 0.00 | 45 | 1011.3 |
| 20260831145503 | 68 | 72 | 3.0 | 8.0 | 0.00 | 0.00 | 0.00 | 45 | 1011.2 |
| 20260831145002 | 67 | 85 | 2.0 | 8.0 | 0.00 | 0.00 | 0.00 | 46 | 1011.1 |
| 20260831144607 | 67 | 64 | 2.0 | 8.0 | 0.00 | 0.00 | 0.00 | 47 | 1011.1 |
| 20260831144101 | 66 | 92 | 1.0 | 4.0 | 0.00 | 0.00 | 0.00 | 47 | 1011.1 |
| 20260831143558 | 66 | 82 | 2.0 | 6.0 | 0.00 | 0.00 | 0.00 | 48 | 1011.1 |
| 20260831143111 | 65 | 105 | 0.0 | 6.0 | 0.00 | 0.00 | 0.00 | 48 | 1011.0 |
| 20260831142558 | 65 | 105 | 0.0 | 6.0 | 0.00 | 0.00 | 0.00 | 48 | 1011.0 |
| 20260831142053 | 65 | 92 | 1.0 | 6.0 | 0.00 | 0.00 | 0.00 | 49 | 1011.0 |
| 20260831141612 | 65 | 72 | 2.0 | 6.0 | 0.00 | 0.00 | 0.00 | 49 | 1011.0 |
| 20260831141051 | 64 | 63 | 1.0 | 6.0 | 0.00 | 0.00 | 0.00 | 49 | 1011.0 |
| 20260831140553 | 64 | 100 | 0.0 | 2.0 | 0.00 | 0.00 | 0.00 | 49 | 1011.0 |
| 20260831140053 | 64 | 114 | 0.0 | 3.0 | 0.00 | 0.00 | 0.00 | 49 | 1011.0 |
| 20260831135548 | 64 | 134 | 0.0 | 3.0 | 0.00 | 0.00 | 0.00 | 49 | 1010.9 |
| 20260831135047 | 65 | 82 | 0.0 | 3.0 | 0.00 | 0.00 | 0.00 | 49 | 1010.9 |
| 20260831134546 | 65 | 77 | 1.0 | 5.0 | 0.00 | 0.00 | 0.00 | 48 | 1010.8 |
| 20260831134044 | 65 | 93 | 1.0 | 6.0 | 0.00 | 0.00 | 0.00 | 48 | 1010.8 |
| 20260831133544 | 65 | 74 | 1.0 | 9.0 | 0.00 | 0.00 | 0.00 | 48 | 1010.7 |
| 20260831133044 | 65 | 76 | 3.0 | 9.0 | 0.00 | 0.00 | 0.00 | 48 | 1010.7 |
| 20260831132547 | 65 | 78 | 3.0 | 8.0 | 0.00 | 0.00 | 0.00 | 48 | 1010.6 |
| 20260831132044 | 65 | 89 | 0.0 | 5.0 | 0.00 | 0.00 | 0.00 | 48 | 1010.6 |
| 20260831131543 | 65 | 57 | 2.0 | 6.0 | 0.00 | 0.00 | 0.00 | 48 | 1010.6 |
| 20260831131043 | 65 | 76 | 2.0 | 7.0 | 0.00 | 0.00 | 0.00 | 48 | 1010.6 |
| 20260831130543 | 65 | 74 | 3.0 | 7.0 | 0.00 | 0.00 | 0.00 | 49 | 1010.7 |
| 20260831130052 | 65 | 99 | 2.0 | 6.0 | 0.00 | 0.00 | 0.00 | 49 | 1010.8 |
| 20260831125544 | 65 | 74 | 2.0 | 8.0 | 0.00 | 0.00 | 0.00 | 49 | 1010.6 |
| 20260831125044 | 65 | 80 | 3.0 | 8.0 | 0.00 | 0.00 | 0.00 | 49 | 1010.6 |
| 20260831124543 | 65 | 76 | 4.0 | 7.0 | 0.00 | 0.00 | 0.00 | 50 | 1010.6 |
| 20260831124041 | 64 | 86 | 4.0 | 8.0 | 0.00 | 0.00 | 0.00 | 50 | 1010.6 |
| 20260831123541 | 64 | 71 | 2.0 | 5.0 | 0.00 | 0.00 | 0.00 | 50 | 1010.6 |
| 20260831123042 | 64 | 74 | 2.0 | 6.0 | 0.00 | 0.00 | 0.00 | 50 | 1010.6 |
| 20260831122544 | 64 | 71 | 3.0 | 6.0 | 0.00 | 0.00 | 0.00 | 50 | 1010.6 |
| 20260831122040 | 64 | 76 | 3.0 | 8.0 | 0.00 | 0.00 | 0.00 | 50 | 1010.5 |
| 20260831121540 | 64 | 82 | 3.0 | 8.0 | 0.00 | 0.00 | 0.00 | 50 | 1010.6 |
| 20260831121039 | 64 | 80 | 3.0 | 11.0 | 0.00 | 0.00 | 0.00 | 50 | 1010.6 |
| 20260831120539 | 64 | 62 | 4.0 | 11.0 | 0.00 | 0.00 | 0.00 | 50 | 1010.6 |
| 20260831120037 | 64 | 71 | 4.0 | 6.0 | 0.00 | 0.00 | 0.00 | 50 | 1010.6 |
| 20260831115536 | 65 | 63 | 3.0 | 6.0 | 0.00 | 0.00 | 0.00 | 49 | 1010.8 |
| 20260831115036 | 65 | 80 | 2.0 | 4.0 | 0.00 | 0.00 | 0.00 | 49 | 1010.7 |
| 20260831114539 | 65 | 89 | 1.0 | 8.0 | 0.00 | 0.00 | 0.00 | 49 | 1010.7 |
| 20260831114038 | 65 | 86 | 2.0 | 5.0 | 0.00 | 0.00 | 0.00 | 49 | 1010.7 |
| 20260831113535 | 65 | 73 | 2.0 | 6.0 | 0.00 | 0.00 | 0.00 | 50 | 1010.8 |
| 20260831113038 | 65 | 72 | 3.0 | 6.0 | 0.00 | 0.00 | 0.00 | 50 | 1010.7 |
| 20260831112536 | 65 | 70 | 3.0 | 5.0 | 0.00 | 0.00 | 0.00 | 50 | 1010.8 |
| 20260831112032 | 65 | 73 | 3.0 | 5.0 | 0.00 | 0.00 | 0.00 | 49 | 1010.8 |
| 20260831111532 | 65 | 67 | 2.0 | 4.0 | 0.00 | 0.00 | 0.00 | 49 | 1010.8 |
| 20260831111032 | 66 | 71 | 2.0 | 4.0 | 0.00 | 0.00 | 0.00 | 49 | 1010.8 |
| 20260831110534 | 66 | 85 | 2.0 | 7.0 | 0.00 | 0.00 | 0.00 | 49 | 1010.8 |
| 20260831110034 | 66 | 78 | 2.0 | 7.0 | 0.00 | 0.00 | 0.00 | 49 | 1010.9 |
| 20260831105533 | 66 | 94 | 2.0 | 6.0 | 0.00 | 0.00 | 0.00 | 50 | 1010.8 |
| 20260831105031 | 66 | 88 | 2.0 | 6.0 | 0.00 | 0.00 | 0.00 | 49 | 1010.8 |
| 20260831104532 | 66 | 74 | 3.0 | 6.0 | 0.00 | 0.00 | 0.00 | 49 | 1010.8 |
| 20260831104029 | 66 | 72 | 3.0 | 5.0 | 0.00 | 0.00 | 0.00 | 49 | 1010.8 |
| 20260831103528 | 66 | 90 | 2.0 | 6.0 | 0.00 | 0.00 | 0.00 | 49 | 1010.8 |
| 20260831103029 | 66 | 110 | 2.0 | 6.0 | 0.00 | 0.00 | 0.00 | 48 | 1010.8 |
| 20260831102528 | 66 | 84 | 2.0 | 5.0 | 0.00 | 0.00 | 0.00 | 48 | 1010.8 |
| 20260831102033 | 66 | 79 | 2.0 | 6.0 | 0.00 | 0.00 | 0.00 | 48 | 1010.8 |
| 20260831101531 | 66 | 86 | 3.0 | 8.0 | 0.00 | 0.00 | 0.00 | 48 | 1010.8 |
| 20260831101032 | 66 | 86 | 3.0 | 8.0 | 0.00 | 0.00 | 0.00 | 49 | 1010.8 |
| 20260831100528 | 66 | 71 | 4.0 | 7.0 | 0.00 | 0.00 | 0.00 | 49 | 1010.8 |
| 20260831100027 | 66 | 88 | 3.0 | 7.0 | 0.00 | 0.00 | 0.00 | 49 | 1010.9 |
| 20260831095527 | 66 | 104 | 2.0 | 6.0 | 0.00 | 0.00 | 0.00 | 49 | 1010.8 |
| 20260831095031 | 66 | 125 | 1.0 | 7.0 | 0.00 | 0.00 | 0.00 | 49 | 1010.9 |
| 20260831094526 | 66 | 129 | 3.0 | 7.0 | 0.00 | 0.00 | 0.00 | 49 | 1010.9 |
| 20260831094025 | 66 | 100 | 2.0 | 7.0 | 0.00 | 0.00 | 0.00 | 49 | 1010.9 |
| 20260831093525 | 66 | 96 | 3.0 | 6.0 | 0.00 | 0.00 | 0.00 | 49 | 1010.8 |
| 20260831093025 | 66 | 81 | 3.0 | 8.0 | 0.00 | 0.00 | 0.00 | 49 | 1010.8 |
| 20260831092524 | 66 | 94 | 5.0 | 8.0 | 0.00 | 0.00 | 0.00 | 49 | 1010.8 |
| 20260831092024 | 66 | 73 | 3.0 | 6.0 | 0.00 | 0.00 | 0.00 | 49 | 1010.8 |
| 20260831091523 | 66 | 76 | 3.0 | 6.0 | 0.00 | 0.00 | 0.00 | 49 | 1010.8 |
| 20260831091026 | 66 | 86 | 4.0 | 6.0 | 0.00 | 0.00 | 0.00 | 50 | 1010.9 |
| 20260831090523 | 66 | 101 | 2.0 | 8.0 | 0.00 | 0.00 | 0.00 | 50 | 1010.8 |
| 20260831090026 | 66 | 105 | 3.0 | 8.0 | 0.00 | 0.00 | 0.00 | 50 | 1010.8 |
| 20260831085522 | 66 | 79 | 2.0 | 6.0 | 0.00 | 0.00 | 0.00 | 49 | 1010.8 |
| 20260831085021 | 66 | 88 | 2.0 | 6.0 | 0.00 | 0.00 | 0.00 | 49 | 1010.9 |
| 20260831084524 | 66 | 97 | 1.0 | 5.0 | 0.00 | 0.00 | 0.00 | 49 | 1010.8 |
| 20260831084020 | 66 | 88 | 2.0 | 6.0 | 0.00 | 0.00 | 0.00 | 49 | 1010.9 |
| 20260831083520 | 66 | 78 | 1.0 | 4.0 | 0.00 | 0.00 | 0.00 | 49 | 1010.9 |
| 20260831083019 | 66 | 85 | 1.0 | 3.0 | 0.00 | 0.00 | 0.00 | 49 | 1011.0 |
| 20260831082518 | 67 | 79 | 1.0 | 4.0 | 0.00 | 0.00 | 0.00 | 49 | 1011.0 |
| 20260831082017 | 67 | 82 | 1.0 | 4.0 | 0.00 | 0.00 | 0.00 | 49 | 1011.1 |
| 20260831081517 | 67 | 84 | 1.0 | 6.0 | 0.00 | 0.00 | 0.00 | 49 | 1011.1 |
| 20260831081017 | 67 | 69 | 1.0 | 6.0 | 0.00 | 0.00 | 0.00 | 49 | 1011.1 |
| 20260831080515 | 67 | 77 | 2.0 | 3.0 | 0.00 | 0.00 | 0.00 | 49 | 1011.1 |
| 20260831080015 | 67 | 81 | 0.0 | 6.0 | 0.00 | 0.00 | 0.00 | 49 | 1011.2 |
| 20260831075515 | 67 | 80 | 2.0 | 6.0 | 0.00 | 0.00 | 0.00 | 49 | 1011.2 |